Location: Carquinez Heights
(38.0763°N, 122.2400°W)
Time: 12:09:57
(UTC+00:00)

Daily predictions for brighter satellites

Satellite Brightness Start Highest point End
(mag) Time Altitude Azimuth Time Altitude Azimuth Time Altitude Azimuth
PSLV R/B 3.7 12:01:24 10° NNE 12:05:48 80° ESE 12:10:07 10° S
Cosmos 2285 Rocket 4.4 12:03:36 20° SW 12:07:43 45° WNW 12:13:44 10° N
Cosmos 468 4.5 12:04:30 10° NNW 12:09:44 67° WSW 12:14:58 10° S
OAO 3 Rocket 3.3 12:07:27 19° WSW 12:10:55 62° S 12:15:47 10° ESE
ARIANE 5 R/B 3.9 12:07:43 10° NNW 12:11:43 23° WNW 12:14:18 16° WSW
Hubble Space Telescope 3.0 12:09:58 11° S 12:11:46 13° SSE 12:13:49 10° SE
H-2A R/B (2) 2.8 12:12:20 15° SSW 12:12:57 16° S 12:15:12 10° SE
Cosmos 1844 Rocket 2.7 12:07:41 10° SSW 12:13:09 82° ESE 12:18:45 10° NNE
deb Chang Zheng 4 4.0 12:11:33 10° NNE 12:15:53 63° ESE 12:20:11 10° S
Cosmos 2228 3.4 12:12:57 16° SSW 12:16:06 44° W 12:20:20 10° N
Atlas Centaur 2 3.5 12:11:47 16° SW 12:17:05 42° SSE 12:24:46 10° E
Cosmos 1386 Rocket 4.4 12:15:51 10° N 12:21:51 74° W 12:27:50 10° S
SAR-Lupe-4 4.2 12:23:03 10° SSE 12:26:34 60° ENE 12:30:06 10° N
NOSS 2-2 (D) 3.3 12:24:02 10° SSW 12:27:31 69° ESE 12:31:12 10° NE
NOSS 2-2 (E) 3.0 12:24:39 13° SW 12:27:47 85° NW 12:31:32 10° NNE
Cosmos 2058 Rocket 3.1 12:25:22 10° SSW 12:29:49 69° W 12:34:17 10° N
Meteor 2-15 Rocket 4.4 12:25:58 10° SSW 12:32:02 77° W 12:38:08 10° N
CZ-2C R/B 4.3 12:30:03 10° NNW 12:32:49 19° WNW 12:35:08 12° WSW
USA 267 3.3 12:26:45 10° SE 12:33:17 87° SW 12:39:52 10° NW
Cosmos 883 Rocket 4.5 12:28:50 10° SSW 12:35:00 75° W 12:41:18 10° N
Lacrosse 5 rocket 4.5 12:33:57 10° SE 12:35:01 11° ESE 12:36:04 10° ESE
IDEFIX/ARIANE 42P 4.0 12:33:40 10° NNW 12:37:22 20° WNW 12:41:04 10° WSW
Cosmos 1125 Rocket 4.5 12:34:07 11° WSW 12:38:23 30° WNW 12:43:00 10° N
Cosmos 1689 Rocket 4.4 12:36:24 10° SE 12:38:57 28° ENE 12:41:31 10° NNE
ADEOS 3.6 12:35:00 10° NNE 12:40:15 87° WNW 12:45:28 10° SSW
Cosmos 1745 Rocket 4.3 12:34:16 10° NNW 12:40:15 48° W 12:46:09 10° SSW
SAR-Lupe-1 4.1 12:38:11 10° SSE 12:41:46 89° WSW 12:45:22 10° NNW
H-2A R/B 3.1 12:38:56 10° SSW 12:42:11 22° W 12:45:26 10° NW
Cosmos 1943 4.3 12:39:03 10° NW 12:43:13 22° W 12:47:22 10° SSW
CZ-4B R/B 1.2 12:42:45 10° S 12:46:00 68° WSW 12:49:12 10° NNW
OAO 2 Rocket 3.9 12:41:39 10° WSW 12:46:45 50° SSE 12:51:46 10° E
Cosmos 494 Rocket 4.2 12:42:47 10° NNW 12:47:46 50° WSW 12:52:45 10° S
SeaSat 1 3.3 12:47:14 10° N 12:51:40 34° WNW 12:56:05 10° WSW
ASTRO F (AKARI) 4.2 12:49:01 10° NNE 12:52:06 89° ESE 12:55:11 10° SSW
